Location: Alma
(38.7220°N, 88.9090°W)
Time: 20:19:25
(UTC-06:00)

Vanguard 2 - Pass Details

Date: 20 November 2019
Orbit: 553 x 2938 km, 32.9° (Epoch: 12 December)

Event Time Altitude Azimuth Distance (km) Brightness Sun altitude
Rises 13:06:42 0° 268° (W) 3,456 11.2 28.2°
Reaches altitude 10° 13:10:32 10° 246° (WSW) 2,184 10.7 27.9°
Maximum altitude 13:13:17 15° 211° (SSW) 1,687 11.4 27.7°
Drops below altitude 10° 13:15:42 10° 175° (S) 1,880 10.6 27.5°
Sets 13:18:36 0° 150° (SSE) 2,707 10.8 27.2°
